Theta_e
348 348 351 351 350 350 349 348 348 347 345 345 345 343 344 343 344 345 344 343 344 346 347 348 349 342 345 344 343 342 342 343 341 343 344 345 346 346 346 346 345 345 343 342 342 340 340 339 339 341 343 344 346 346 342 343 342 343 343 343 343 340
348 347 347 349 348 349 350 347 349 348 347 346 344 343 346 346 345 348 342 346 349 347 347 349 348 345 344 346 346 345 345 345 346 346 346 346 347 347 346 346 345 344 343 342 343 344 344 343 342 341 341 344 344 343 345 344 344 343 343 342 344 344
346 347 348 346 347 348 347 347 346 346 344 344 345 346 345 345 347 345 346 346 348 351 350 350 351 349 350 349 349 346 346 346 346 347 347 346 347 347 346 345 344 345 345 343 344 339 339 343 345 344 345 349 346 345 345 345 345 345 343 342 345 345
347 348 347 346 346 346 347 348 346 345 344 345 346 345 345 346 346 349 348 349 350 351 351 352 351 350 350 349 350 348 347 346 346 346 347 349 346 347 347 344 346 346 346 347 346 342 342 342 344 346 346 343 344 344 345 346 343 344 342 342 345 344
347 347 346 347 345 344 347 345 345 342 342 344 345 346 346 348 349 349 349 350 349 350 350 350 351 350 352 352 349 348 349 349 350 349 347 351 350 346 350 348 349 348 346 346 346 347 345 344 347 346 347 345 346 347 346 347 345 344 345 346 346 344
347 347 348 347 345 345 345 344 344 340 342 345 345 345 346 347 348 350 349 349 350 350 349 349 350 351 351 352 349 348 349 350 350 351 351 352 350 351 350 348 348 347 347 349 349 349 348 346 346 345 345 347 347 347 346 344 345 346 344 346 343 343
346 346 346 346 346 345 344 345 345 342 341 343 344 345 344 346 348 349 349 350 349 347 348 347 348 349 348 350 348 348 348 351 351 350 352 350 350 351 349 348 346 347 345 345 345 345 344 345 346 342 345 345 345 345 346 345 345 345 344 347 342 341
345 346 346 345 346 343 344 345 345 343 344 343 343 343 343 346 349 349 349 350 350 348 347 345 348 348 348 349 348 349 350 350 351 350 352 351 349 348 346 346 347 345 343 344 343 345 344 343 345 346 345 344 344 346 346 345 347 347 345 344 340 338
346 345 347 347 345 344 345 345 345 343 341 344 344 345 346 348 347 347 349 350 350 349 347 348 347 347 348 348 349 352 351 350 351 350 351 349 349 347 346 345 345 344 345 345 344 344 342 343 345 345 343 342 342 344 344 345 345 343 344 341 337 335
346 346 346 347 346 345 345 344 343 344 342 345 344 346 348 345 347 348 346 348 348 348 347 347 347 347 347 348 349 352 352 352 350 350 351 349 347 346 344 344 344 344 342 343 343 343 342 343 343 343 342 343 343 343 343 340 340 340 342 341 337 335
345 347 346 345 346 347 346 344 342 344 344 344 345 346 346 347 346 347 348 349 348 348 348 348 348 348 350 350 351 352 351 352 350 351 351 349 349 346 346 344 344 343 343 343 343 343 341 342 343 342 342 342 341 341 339 339 338 338 338 338 337 336
345 347 347 346 346 345 345 344 344 343 344 346 347 344 344 347 347 347 348 348 349 349 348 347 347 347 351 351 350 350 351 351 350 350 350 348 345 346 344 343 343 344 345 344 343 342 343 342 341 340 339 337 336 337 336 335 335 335 336 336 336 337
346 348 347 346 345 345 345 344 345 345 345 346 345 346 344 346 348 348 349 348 348 348 349 347 349 350 349 350 350 350 350 351 351 351 350 348 346 346 345 343 344 343 343 343 342 341 339 341 339 339 339 335 335 332 333 333 332 332 331 332 330 328
345 346 347 347 347 345 346 345 345 346 346 345 344 344 345 347 347 347 348 349 349 347 347 347 348 349 350 351 351 350 348 346 349 350 348 347 344 343 342 342 341 341 339 340 338 339 338 338 336 336 335 333 333 332 331 330 329 329 329 329 328 327
346 347 347 346 346 346 347 344 344 345 346 346 345 344 345 347 347 347 346 347 348 346 346 347 349 348 349 350 348 347 345 346 347 347 345 345 342 342 342 340 341 340 340 338 335 337 336 335 334 334 332 331 330 329 329 327 327 327 325 327 327 324
346 345 347 346 347 347 346 345 344 343 345 346 344 345 346 347 347 346 348 347 347 346 347 347 347 347 349 347 346 345 344 346 346 345 345 343 343 340 341 340 341 340 337 335 334 334 335 334 333 331 330 329 328 327 326 325 324 323 323 324 323 323
345 346 346 346 346 346 345 344 345 344 345 346 344 345 348 347 346 347 346 345 345 345 346 346 348 347 347 347 345 345 344 344 345 344 343 342 339 340 340 338 339 338 338 335 332 331 333 333 329 327 326 326 325 325 325 324 322 321 320 320 320 319
345 345 345 345 344 345 345 344 343 344 345 344 346 346 347 346 346 346 346 344 345 345 346 346 347 346 347 346 345 343 343 343 343 343 341 340 339 339 339 339 336 336 335 335 332 332 331 330 325 324 323 323 322 322 320 321 321 319 317 315 317 317
344 344 344 344 344 344 345 344 344 344 344 344 344 344 345 344 344 345 345 344 344 345 346 347 347 347 346 342 342 342 343 342 342 340 340 338 338 338 338 337 336 336 334 332 332 332 332 327 323 321 318 320 321 320 319 317 318 315 315 316 314 314
344 344 344 343 341 340 339 340 340 341 340 341 342 342 343 342 343 343 342 343 342 344 345 344 344 344 343 342 341 341 342 341 340 340 339 338 337 336 336 335 334 333 332 330 332 331 331 327 323 320 317 317 317 316 314 315 314 313 315 315 314 314
344 344 342 339 338 337 336 338 340 338 337 339 339 339 339 340 340 341 342 341 342 341 342 342 341 341 342 340 341 341 341 339 339 338 337 336 336 335 335 334 332 332 330 329 328 332 331 328 324 320 319 317 315 314 314 313 312 312 312 312 312 311
342 342 341 340 339 338 339 338 338 337 338 337 336 336 336 338 336 336 337 338 339 340 340 341 341 342 342 341 340 338 339 337 336 335 334 334 333 333 333 332 333 328 327 326 327 329 330 329 324 322 319 317 316 314 312 311 309 310 311 311 312 311
339 340 341 340 340 340 341 341 340 338 338 334 337 335 334 333 333 334 334 335 336 338 338 338 338 339 339 338 337 337 336 334 333 334 334 333 332 331 331 331 331 327 322 323 325 328 329 330 324 326 326 321 315 313 311 309 310 309 309 311 310 308
343 337 337 338 339 341 342 341 340 340 338 336 332 332 331 333 333 333 331 331 333 334 334 335 335 334 334 335 336 335 336 334 332 333 331 330 329 329 330 329 328 326 325 321 320 321 325 328 326 326 320 320 321 319 312 310 307 307 309 307 307 307
341 337 336 338 340 341 337 334 332 332 331 330 331 330 329 328 328 329 329 329 329 331 332 332 333 333 333 334 334 335 333 333 331 331 330 328 326 326 327 327 328 325 326 320 316 318 319 323 324 324 320 322 316 317 314 309 306 305 308 306 306 306
339 337 336 338 340 337 334 331 330 330 328 328 326 327 325 323 323 326 327 327 328 329 329 330 331 332 332 331 332 331 331 330 329 328 327 325 326 325 325 324 325 323 322 323 318 313 311 315 316 316 317 315 317 316 311 309 310 301 307 307 306 305
338 338 336 338 339 337 335 334 334 333 332 330 326 328 328 328 325 326 326 327 327 329 329 330 331 331 330 329 330 329 329 328 327 325 325 325 324 323 322 322 323 321 320 320 319 310 309 308 310 313 313 314 315 316 318 315 307 304 302 304 305 305
337 337 338 339 339 339 336 335 336 335 333 331 328 327 326 325 326 325 325 326 327 328 329 329 328 327 328 328 327 327 326 325 323 323 322 322 322 322 321 321 321 321 319 320 320 315 315 313 307 308 313 310 309 311 313 314 315 312 305 303 301 303
337 337 338 339 339 339 338 337 336 335 332 333 330 327 327 326 325 325 324 324 326 327 328 327 327 326 326 325 325 325 324 323 321 320 319 320 319 319 318 318 318 317 316 316 316 316 314 310 310 308 310 311 310 307 307 310 311 312 307 304 300 302
336 338 338 339 339 339 339 338 336 336 333 330 328 327 327 325 325 324 324 325 326 326 325 324 325 325 325 323 323 323 321 321 321 319 318 318 317 316 315 315 316 315 315 314 315 315 313 313 313 314 314 315 313 311 309 308 308 307 306 305 300 299
338 337 338 339 339 338 338 338 336 335 334 330 329 328 327 324 322 322 323 324 325 325 324 323 323 324 324 323 323 322 321 319 319 318 316 315 314 312 312 312 313 314 314 313 311 313 313 313 312 312 311 309 308 307 306 305 306 306 307 306 302 301
337 338 339 338 338 337 336 335 336 335 332 331 329 328 326 324 324 325 325 324 323 325 324 323 323 322 322 321 321 319 320 319 317 317 314 314 313 312 311 311 311 311 312 312 313 312 312 311 311 310 310 309 308 308 308 307 306 307 307 306 305 301
338 338 337 337 336 335 335 334 333 332 331 330 329 330 330 329 327 326 325 324 323 322 323 323 321 321 320 320 319 319 318 316 315 315 314 312 312 312 312 311 312 311 311 311 311 312 311 312 312 309 307 308 308 308 307 308 309 308 308 308 308 304
334 337 336 336 336 335 334 334 334 332 331 330 330 331 330 327 327 325 324 324 324 323 323 322 321 319 319 319 319 318 318 316 315 313 312 312 312 311 311 308 310 309 309 310 311 311 311 311 311 310 310 307 308 307 307 308 308 307 307 306 304 305
334 335 335 336 336 333 333 334 332 330 329 330 330 330 328 329 327 325 325 324 324 324 323 322 320 320 319 318 317 316 315 314 313 312 311 311 311 311 310 310 309 310 309 310 310 309 309 310 309 309 309 308 307 307 307 306 307 307 307 306 305 305
335 334 333 333 332 332 331 332 332 329 329 330 329 330 328 327 325 325 325 324 323 323 322 321 320 318 317 317 316 315 314 313 312 311 310 310 310 309 309 308 307 308 307 308 308 308 308 309 309 309 308 308 307 305 307 306 307 307 306 307 306 305
335 337 333 333 334 332 330 330 330 330 330 330 329 329 326 324 323 323 323 323 322 322 322 321 319 318 317 316 315 314 313 311 311 310 310 310 309 309 309 308 308 307 307 308 308 307 307 307 307 307 307 307 306 306 306 308 307 307 307 307 306 305
Wind_Speed
10 11 10 10 9 10 11 13 11 11 11 11 11 9 8 8 8 8 7 5 6 7 7 7 8 8 10 7 8 7 7 5 5 4 4 5 4 3 3 2 1 1 1 1 4 5 6 6 5 5 5 7 9 8 2 3 5 3 3 3 7 7
9 10 9 8 7 8 9 9 9 9 8 9 9 10 9 7 8 7 6 7 4 5 5 5 6 8 7 9 8 8 7 6 5 4 4 4 4 4 3 3 2 2 2 5 7 7 9 8 9 7 8 9 8 3 1 3 3 4 3 5 8 9
9 10 10 8 7 8 9 8 8 8 7 9 9 9 7 7 7 7 5 5 4 4 4 5 5 5 6 8 8 7 6 5 5 4 5 5 5 5 4 4 4 4 6 8 9 2 3 4 6 11 9 8 4 2 3 2 3 2 4 8 5 11
10 10 9 7 7 8 7 7 6 6 7 7 7 7 7 6 6 5 5 4 3 3 3 4 6 9 9 7 7 8 7 7 7 7 6 8 7 7 7 8 7 7 10 6 1 1 1 1 2 1 1 3 3 2 3 3 3 3 7 8 8 13
10 9 10 8 8 8 7 6 6 6 7 6 6 6 6 6 5 6 5 4 5 4 3 3 5 5 4 4 5 6 7 6 6 6 8 4 5 6 7 5 5 7 1 1 1 2 2 3 3 2 2 2 2 3 3 2 3 6 9 7 9 13
10 10 10 8 8 8 8 7 6 6 7 6 6 6 6 5 6 6 5 4 4 4 3 3 3 2 2 2 3 3 3 3 3 3 4 2 2 1 2 2 1 2 1 2 1 1 2 2 2 2 3 3 3 3 3 4 5 3 8 7 11 16
10 10 10 9 8 8 7 7 6 6 7 7 6 6 5 5 5 5 4 4 4 4 3 3 3 2 2 2 2 2 2 2 2 2 2 2 2 1 1 1 1 1 1 1 2 2 1 3 3 3 3 3 4 4 4 4 4 4 8 7 13 20
10 10 9 9 8 8 7 7 6 6 6 7 7 7 6 5 4 4 4 3 3 3 3 3 3 2 2 1 1 1 1 2 2 2 2 1 1 2 1 2 2 2 2 2 2 2 3 2 2 3 3 3 3 4 4 4 5 5 7 9 11 17
11 11 9 8 8 8 7 7 7 7 7 7 6 6 5 5 5 4 4 4 3 2 2 2 2 2 1 1 1 1 1 1 1 2 1 2 2 2 2 2 2 2 2 2 2 3 2 3 3 3 3 3 4 4 5 5 4 5 6 8 8 14
12 11 10 9 8 8 8 7 7 7 6 7 6 5 5 5 4 4 4 3 2 2 1 1 1 1 2 2 1 2 1 2 2 2 2 2 2 2 2 2 2 3 3 2 3 3 2 3 3 3 4 4 4 5 5 5 5 4 6 7 8 9
12 11 9 9 8 8 7 7 7 7 6 6 6 5 5 4 3 3 3 3 3 2 1 1 0 1 1 1 2 2 2 1 2 2 2 2 3 3 3 2 3 3 3 4 3 3 4 3 3 4 4 4 5 5 5 5 5 5 5 7 6 6
12 11 9 9 8 8 8 7 7 6 6 5 5 5 5 3 3 3 3 3 2 2 1 1 1 1 1 1 2 2 2 1 2 1 3 3 3 3 3 4 4 3 3 3 3 4 4 4 3 4 5 6 6 5 6 6 6 6 6 6 5 5
11 11 10 9 8 8 7 7 7 6 6 5 5 4 3 3 3 3 3 3 2 2 1 2 1 2 2 1 2 2 2 2 2 2 2 3 3 2 3 2 2 2 3 3 4 4 4 3 5 5 5 5 6 7 6 6 6 6 6 6 6 5
11 11 10 8 7 7 7 7 6 6 6 6 4 3 3 3 3 3 3 3 2 2 2 3 3 3 3 2 2 2 2 2 2 2 2 2 2 3 3 3 3 3 4 3 4 4 3 4 5 5 5 6 6 6 6 6 6 6 6 6 6 6
11 11 9 9 9 8 7 7 6 6 5 5 4 3 3 4 3 2 2 2 2 2 2 3 3 2 3 2 3 3 2 2 2 2 2 3 2 3 3 3 4 3 4 4 4 3 4 5 5 5 5 5 6 6 6 6 6 6 6 6 6 7
12 11 10 9 8 7 7 6 6 5 5 5 4 4 4 3 2 2 2 1 2 2 2 3 4 3 2 2 2 2 2 3 2 2 3 3 3 3 4 3 3 4 3 4 4 4 5 4 5 6 6 6 6 6 6 6 6 6 6 6 6 7
12 12 11 9 8 8 7 6 6 6 5 5 5 4 3 3 2 2 2 2 2 3 3 3 3 3 2 3 2 3 3 3 2 2 3 3 3 3 3 2 3 4 4 3 3 4 5 5 6 7 7 7 6 6 6 5 5 5 6 7 6 6
11 11 10 10 9 8 7 7 6 6 5 5 5 4 3 2 2 1 3 3 4 3 2 3 3 3 2 2 3 3 4 2 2 3 3 3 3 3 3 2 3 3 3 3 2 3 6 6 6 7 7 7 7 6 6 6 5 5 5 6 6 6
11 10 10 9 8 7 7 7 6 6 6 5 5 4 4 3 3 3 2 3 4 3 3 2 3 3 3 3 3 4 4 2 3 2 1 1 3 3 2 3 3 2 3 3 3 3 6 6 7 7 8 8 7 7 6 6 5 5 5 5 6 6
11 11 9 9 8 8 7 7 7 6 5 5 4 4 4 3 3 3 2 2 4 3 3 3 2 3 3 3 3 3 3 2 2 1 1 2 2 2 2 2 2 2 2 5 4 5 7 7 8 9 9 8 8 8 8 6 5 5 4 5 5 5
11 11 10 10 9 9 9 8 7 6 6 6 5 5 4 4 3 2 4 4 5 3 3 3 2 2 3 3 2 3 3 2 1 2 2 2 2 2 1 1 1 1 3 4 5 5 7 7 8 7 7 8 8 7 7 5 6 5 6 5 5 5
11 11 11 9 8 7 8 7 7 7 6 6 6 5 5 3 2 3 3 4 4 4 3 2 2 2 2 2 2 2 2 2 1 2 3 2 2 1 0 1 1 3 4 5 5 3 6 6 5 6 6 6 5 5 5 6 6 7 5 5 4 5
11 11 7 7 8 7 6 7 7 6 7 7 4 4 6 4 3 4 3 4 4 4 3 3 3 3 2 2 2 2 2 2 2 1 0 1 1 1 1 2 1 2 5 5 5 2 5 5 3 7 5 7 6 5 5 6 6 7 6 5 4 5
7 9 8 8 7 8 6 6 5 6 5 5 7 6 6 4 4 5 5 4 4 4 3 3 3 3 2 3 2 1 1 1 2 1 1 1 2 2 2 3 3 3 2 4 4 5 1 4 4 5 7 7 5 8 8 5 5 4 5 6 6 6
11 10 9 10 11 9 10 10 8 8 9 9 8 7 5 4 3 4 4 4 4 3 3 3 3 2 2 2 2 1 2 2 2 2 2 2 3 3 4 4 4 4 4 3 5 5 4 2 3 4 6 4 4 5 4 8 7 5 2 4 6 6
10 9 9 12 11 10 9 10 9 8 7 6 6 6 7 6 4 4 4 4 3 3 3 3 2 2 2 2 3 3 2 2 3 2 3 3 4 5 5 5 5 4 5 5 4 5 5 4 4 6 5 4 4 5 3 7 6 5 4 4 5 6
7 7 10 11 13 11 11 10 12 10 10 9 8 4 3 4 4 5 4 4 3 2 2 3 2 1 2 3 3 3 3 3 3 4 4 4 5 5 5 6 5 5 4 4 2 5 5 5 5 6 5 6 6 5 6 1 2 7 6 4 3 4
12 10 10 12 14 13 11 11 11 11 9 10 10 9 6 5 5 5 5 4 2 2 3 2 2 2 2 3 3 3 4 4 4 5 5 5 6 5 5 6 6 6 5 4 3 3 3 3 4 4 5 7 7 7 6 7 6 4 3 4 5 5
11 12 12 15 14 13 11 12 11 10 10 9 11 9 6 6 6 5 6 4 3 3 3 2 3 3 3 4 4 4 4 5 5 6 6 6 7 8 8 7 7 6 6 5 5 4 4 4 4 4 4 5 5 6 7 7 6 5 2 3 4 4
15 12 12 15 14 14 12 11 10 10 11 11 11 10 8 7 7 6 6 6 5 4 4 4 4 4 4 5 5 5 6 7 7 6 7 7 8 8 8 8 8 8 7 7 6 5 5 4 4 3 2 1 2 3 4 5 5 4 5 5 4 4
17 12 14 13 12 12 11 10 10 11 13 14 12 11 10 8 7 6 7 6 5 4 4 4 4 4 5 5 6 6 6 7 7 6 6 7 7 7 8 8 8 9 9 8 7 7 7 6 5 6 6 6 6 6 6 6 5 5 4 3 3 4
15 14 13 11 11 10 9 10 10 10 13 13 12 10 12 11 10 9 8 7 6 5 5 5 4 5 4 5 6 6 7 7 6 6 6 6 7 7 7 7 7 7 7 7 6 6 6 7 7 6 7 6 7 6 6 5 5 5 5 4 3 4
13 13 14 13 11 11 10 10 11 11 12 11 10 11 12 11 9 8 7 7 7 6 5 5 5 5 6 6 6 6 6 6 6 6 7 8 8 8 7 7 7 8 7 7 6 6 6 7 6 6 6 6 6 6 6 5 5 5 5 5 5 4
15 13 12 12 13 13 12 11 11 10 11 11 10 10 8 8 8 6 6 6 6 6 5 5 6 6 6 6 6 6 7 7 7 8 8 8 8 8 8 8 8 8 8 7 7 8 7 7 7 7 6 7 7 6 6 6 6 6 7 6 6 6
15 14 13 12 10 12 11 12 12 9 9 8 7 8 7 7 7 7 6 6 6 5 5 6 6 6 7 8 8 7 8 8 8 8 8 8 8 8 8 7 7 7 6 6 7 7 7 8 8 8 8 6 6 6 6 6 6 7 7 7 6 6
16 16 13 13 13 14 12 12 12 12 11 10 8 8 7 7 6 6 6 6 7 6 6 6 7 8 8 8 8 8 8 8 9 8 8 8 8 7 7 7 7 7 7 5 7 8 7 8 8 8 7 6 7 7 6 6 6 6 6 6 5 5
15 13 15 14 13 13 13 13 13 12 12 11 11 10 8 9 8 7 6 6 6 7 7 7 8 7 8 8 8 8 8 9 8 8 8 8 8 8 7 7 7 7 7 6 7 7 6 7 7 7 7 8 7 7 6 6 6 5 5 5 5 5
Wind_Direction
165 166 163 158 150 139 127 127 123 124 126 128 127 140 139 144 140 130 129 148 202 142 131 130 166 127 160 135 122 135 151 154 155 155 145 136 127 129 127 119 124 104 248 235 243 211 181 185 197 212 218 229 235 242 279 312 315 320 342 346 24 42
166 164 156 153 150 139 141 156 135 139 139 138 138 147 173 148 141 126 159 194 153 135 135 129 126 139 131 144 141 140 151 160 162 163 157 153 143 142 148 141 163 192 232 239 239 222 172 174 185 191 210 226 231 265 21 306 316 335 328 31 42 37
168 161 158 161 153 145 151 150 144 141 134 151 147 164 145 158 147 153 148 133 142 136 149 127 136 124 115 88 125 146 141 161 175 174 183 169 168 160 161 179 182 205 220 225 229 207 230 173 165 181 198 220 263 358 338 309 299 340 333 45 47 19
168 162 162 164 158 155 151 149 141 143 148 146 160 156 152 157 151 141 149 146 147 143 151 139 117 130 141 150 144 170 174 175 189 196 196 192 175 174 185 181 181 208 218 223 15 299 327 3 333 323 298 319 329 355 319 340 338 322 34 55 37 23
168 160 164 161 162 158 148 152 142 147 153 152 156 150 154 156 148 159 153 159 148 155 155 144 156 158 180 157 157 159 176 183 171 163 197 199 180 150 194 176 166 203 38 23 11 23 342 352 338 329 319 332 328 341 325 356 22 356 67 39 38 35
165 168 165 164 167 147 155 154 146 156 160 153 154 160 162 161 160 169 165 159 153 152 158 149 149 154 149 165 172 154 169 158 160 159 193 150 114 159 103 96 60 52 62 36 23 19 11 352 330 334 346 2 352 353 356 12 18 6 49 45 43 39
172 170 167 166 158 159 168 153 151 162 167 156 162 163 166 166 166 169 169 163 168 161 163 166 154 164 164 189 155 165 155 153 161 146 141 106 109 101 55 73 65 75 94 85 40 14 19 49 10 354 26 17 9 14 18 26 31 25 77 61 53 44
174 169 163 167 165 162 163 157 149 155 179 160 166 170 168 168 168 166 166 164 166 182 172 165 166 178 172 185 148 141 143 159 149 138 106 102 94 60 57 47 28 45 30 59 45 33 25 46 30 19 21 21 30 33 29 33 37 41 65 65 54 45
171 171 166 169 167 164 155 162 158 172 179 159 178 175 161 169 176 163 155 167 165 176 175 173 170 173 182 152 137 135 144 128 96 82 85 60 39 45 44 31 28 357 52 35 81 43 31 35 24 28 20 44 34 50 40 46 56 60 70 77 65 48
173 173 168 171 166 163 156 165 167 175 162 175 174 171 167 176 171 161 156 156 150 141 160 168 158 191 180 151 134 122 130 91 75 56 56 60 47 33 30 39 28 8 16 35 40 51 5 43 42 39 24 33 43 47 54 49 43 52 83 87 71 66
175 174 169 172 164 160 159 168 170 170 168 183 161 175 180 169 159 151 143 145 140 111 87 47 242 192 155 153 117 117 99 93 78 49 46 58 47 39 41 42 41 28 25 18 27 41 15 31 32 57 56 53 57 58 61 55 50 37 71 93 91 87
175 173 170 169 166 163 164 171 166 171 176 168 168 185 172 158 150 152 146 138 118 116 107 78 295 213 187 158 139 110 111 86 68 69 53 40 53 49 47 39 29 34 27 23 35 40 47 36 38 34 56 55 62 71 69 64 63 59 40 70 77 74
174 171 174 166 164 163 167 167 170 177 167 164 176 182 164 158 162 159 148 130 108 120 142 161 206 201 182 153 110 126 119 115 99 63 55 51 56 67 68 86 83 42 32 51 32 34 34 44 40 45 54 69 73 68 67 70 68 67 74 65 69 74
176 173 168 165 164 165 171 168 173 175 162 167 162 169 166 175 182 170 155 131 138 150 165 159 179 188 169 145 142 142 143 117 99 88 69 54 58 53 49 36 26 36 37 28 47 27 32 48 66 66 68 70 68 68 72 71 69 70 62 65 64 55
176 167 165 166 171 168 169 172 170 168 161 165 160 173 174 187 183 166 129 114 152 153 164 167 172 182 148 153 151 145 118 96 81 71 67 56 44 53 51 26 23 19 41 32 55 32 42 60 73 83 76 75 81 82 77 75 73 70 71 69 62 57
173 164 167 172 168 158 161 172 167 159 160 164 169 172 172 179 174 123 100 115 154 153 175 172 164 169 148 148 138 124 99 81 60 66 64 55 47 60 52 39 28 12 23 36 33 51 62 73 81 83 76 75 75 75 77 74 68 63 56 57 57 59
174 165 169 167 158 155 154 160 162 165 165 168 171 161 159 159 143 123 115 149 154 154 185 178 160 156 151 154 144 106 89 80 76 67 70 82 66 50 67 44 31 33 24 11 57 72 82 92 92 85 82 76 71 71 69 69 67 66 66 56 59 64
169 168 164 160 163 154 153 156 160 163 165 162 156 147 132 140 114 133 154 156 152 145 180 174 157 150 148 127 99 100 94 71 64 61 67 72 60 59 51 25 41 29 26 30 50 95 109 95 93 89 81 73 69 71 76 70 62 55 58 66 69 64
167 162 158 156 141 138 142 153 162 162 162 152 146 149 145 145 145 150 145 149 135 143 169 154 134 145 142 112 101 92 100 100 91 73 87 119 107 82 55 30 14 53 58 54 90 85 106 112 105 95 86 77 74 71 67 60 59 63 58 55 58 58
166 163 153 145 144 154 162 162 164 164 150 148 151 150 149 135 146 142 159 159 135 135 131 126 125 108 91 84 104 106 106 110 74 91 40 37 24 52 40 46 34 21 74 99 99 115 123 120 101 92 85 78 69 65 65 65 71 70 69 63 54 54
161 161 167 164 169 169 167 171 167 170 162 163 152 144 134 149 132 118 144 141 120 109 106 101 94 106 111 122 118 111 112 86 49 41 40 48 46 66 43 28 61 56 72 97 106 126 125 130 128 108 95 90 82 68 64 67 74 74 69 59 60 60
157 166 167 172 163 170 172 171 171 172 159 151 143 152 119 82 94 117 72 84 82 113 119 121 122 110 115 109 109 99 82 88 71 65 65 65 62 85 112 95 49 101 72 87 99 132 142 169 165 153 150 134 108 87 76 68 62 60 62 71 83 81
169 159 151 164 165 166 170 167 175 162 159 137 105 110 120 113 128 108 82 99 93 101 118 117 108 96 92 75 83 92 94 89 64 29 315 50 36 35 32 76 83 88 110 89 96 94 164 227 241 171 176 172 169 151 157 109 79 69 64 61 62 65
157 156 155 151 157 170 159 142 143 140 124 139 137 123 96 87 108 99 80 58 70 78 79 91 86 91 85 82 83 92 121 101 88 67 12 54 86 89 94 104 96 81 71 121 95 93 116 223 292 300 203 229 179 169 158 129 109 79 79 73 64 58
175 159 156 156 171 150 122 111 116 113 115 114 108 104 104 105 89 83 90 69 74 72 89 90 83 85 95 90 75 56 65 77 72 60 62 90 87 80 88 83 80 76 52 64 106 91 81 36 6 360 333 282 208 210 69 124 123 91 74 83 71 73
183 158 165 166 168 140 143 141 147 153 139 131 133 145 160 146 152 125 97 92 76 85 83 81 93 79 70 82 82 77 68 79 87 77 77 83 96 93 81 86 74 89 85 56 88 105 91 75 64 38 38 16 352 357 116 152 204 116 117 81 74 61
174 164 169 179 170 156 157 164 171 164 156 153 160 165 130 128 126 102 101 104 97 81 97 96 67 76 83 85 84 76 79 79 84 87 81 82 77 76 76 62 69 71 75 84 84 100 98 100 84 62 53 47 44 39 26 219 134 136 141 106 78 82
188 168 171 176 170 177 167 172 172 168 170 158 168 159 153 128 106 109 117 119 125 117 95 107 121 124 116 102 95 94 89 86 87 83 83 75 70 69 79 75 64 68 67 61 54 97 94 64 78 70 38 49 57 52 56 43 24 329 62 143 138 118
167 180 177 178 180 176 173 173 177 174 165 159 152 145 142 129 121 129 130 139 135 133 121 115 116 117 107 101 101 94 92 88 82 81 83 81 74 72 71 73 74 71 71 72 67 68 99 103 106 102 99 79 69 66 64 52 46 20 57 137 117 132
168 182 182 178 178 172 169 171 176 172 158 151 147 143 145 137 133 142 147 152 156 153 136 133 122 110 101 96 95 99 94 87 82 75 75 79 82 79 77 75 71 74 75 79 71 69 74 82 79 60 48 102 107 105 84 78 60 67 60 44 82 101
161 174 178 172 173 173 172 176 176 176 165 154 148 145 142 143 145 156 157 160 158 142 143 135 129 114 103 100 95 89 90 90 87 87 89 90 85 87 85 82 80 77 74 76 79 81 78 76 79 70 63 62 65 56 55 60 51 49 44 70 95 99
161 167 166 162 173 173 174 169 175 175 163 158 154 154 157 157 166 165 160 153 150 151 140 134 132 120 112 107 102 97 97 95 91 90 89 90 92 90 89 87 83 82 79 76 81 83 83 83 81 83 74 71 68 65 60 57 55 39 39 40 37 62
161 166 165 160 168 169 170 171 171 173 168 158 166 163 161 159 159 159 158 154 151 145 142 140 130 123 114 116 111 108 104 101 98 91 92 90 88 88 88 85 83 81 76 73 69 73 77 71 73 78 82 72 69 70 66 59 45 44 42 40 28 50
168 160 162 164 172 170 170 169 161 169 165 166 162 160 149 148 154 150 151 148 145 143 139 133 132 124 123 116 103 99 98 97 99 99 94 92 91 89 90 90 88 85 84 81 81 81 82 81 78 76 77 76 70 70 65 53 49 47 42 38 40 25
161 165 171 164 154 158 166 166 163 158 148 159 151 152 150 149 148 144 144 140 132 135 131 132 127 121 121 114 113 111 109 107 103 100 99 98 94 91 91 93 90 87 85 84 85 84 81 80 78 76 72 76 80 69 62 55 48 47 45 42 35 19
175 171 163 158 167 164 162 164 159 152 157 158 155 154 147 139 131 134 134 137 132 128 127 127 124 127 125 124 120 118 115 109 106 105 106 103 102 99 97 98 98 96 95 96 97 93 91 84 81 78 78 79 77 69 58 54 53 50 46 40 39 29
183 167 168 170 166 154 161 163 159 155 159 158 159 158 147 136 134 133 134 134 135 127 130 132 129 128 128 125 124 118 114 111 110 111 110 108 107 107 107 102 102 103 100 98 92 87 85 86 86 82 79 74 75 73 66 62 58 55 49 45 46 40